Weather History for Stuart, FL

Change the Weather History Date:

Friday, July 5, 2013

  Actual Average Record
Temperature  
Mean Temperature 82 °F -  
Max Temperature 86 °F 89 °F 96 °F (1963)
Min Temperature 77 °F 73 °F 67 °F (1970)
Cooling Degree Days 16    
Growing Degree Days 32 (Base 50)    
Moisture  
Dew Point 74 °F    
Average Humidity 78    
Maximum Humidity 89    
Minimum Humidity 66    
Precipitation  
Precipitation 0.00 in - - ()
Sea Level Pressure  
Sea Level Pressure 30.13 in    
Wind  
Wind Speed 8 mph (SE)    
Max Wind Speed 18 mph    
Max Gust Speed 25 mph    
Visibility 9 miles    
Events Thunderstorm    
Averages and records for this station are not official NWS values.
T = Trace of Precipitation, MM = Missing Value Source: NWS Daily Summary

Daily Weather History Graph

Daily Weather History Graph

Search for Another Location

Airport:

Trip Planner

Search our weather history database for the weather conditions in past years. The results will help you decide how hot, cold, wet, or windy it might be!

Date:

Astronomy

Jul. 05, 2013 Rise Set
Actual Time 6:31 AM EDT 8:19 PM EDT
Civil Twilight 6:05 AM EDT 8:45 PM EDT
Nautical Twilight 5:33 AM EDT 9:17 PM EDT
Astronomical Twilight 5:00 AM EDT 9:50 PM EDT
Moon 4:24 AM EDT (7/5) 6:17 PM EDT (7/5)
Length of Visible Light 14h 40m
Length of Day
13h 47m
Waning Crescent, 6% of the Moon is Illuminated
Jul 5
Waning Crescent
Jul 8
New
Jul 15
First Quarter
Jul 22
Full
Jul 29
Last Quarter

Hourly Weather History & Observations

Time (EDT) Temp. Heat Index Dew Point Humidity Pressure Visibility Wind Dir Wind Speed Gust Speed Precip Events Conditions
12:15 AM 80.6 °F 85.4 °F 73.4 °F 79% 30.17 in 10.0 mi SE 6.9 mph - N/A   Scattered Clouds
12:35 AM 80.6 °F 85.4 °F 73.4 °F 79% 30.16 in 10.0 mi SE 6.9 mph - N/A Thunderstorm Clear
12:55 AM 80.6 °F 85.4 °F 73.4 °F 79% 30.15 in 10.0 mi SE 6.9 mph - N/A   Clear
1:15 AM 80.6 °F 85.4 °F 73.4 °F 79% 30.15 in 10.0 mi SE 6.9 mph - N/A   Clear
1:35 AM 80.6 °F 86.2 °F 75.2 °F 84% 30.15 in 10.0 mi SE 6.9 mph - N/A Thunderstorm Clear
1:55 AM 80.6 °F 86.2 °F 75.2 °F 84% 30.15 in 10.0 mi SE 8.1 mph - N/A   Scattered Clouds
2:15 AM 80.6 °F 85.4 °F 73.4 °F 79% 30.15 in 10.0 mi SSE 5.8 mph - N/A   Clear
2:35 AM 80.6 °F 85.4 °F 73.4 °F 79% 30.15 in 10.0 mi SSE 3.5 mph - N/A Thunderstorm Scattered Clouds
2:55 AM 80.6 °F 85.4 °F 73.4 °F 79% 30.14 in 10.0 mi SE 3.5 mph - N/A   Mostly Cloudy
3:15 AM 78.8 °F - 69.8 °F 74% 30.14 in 10.0 mi South 3.5 mph 9.2 mph N/A   Scattered Clouds
3:35 AM 78.8 °F - 69.8 °F 74% 30.12 in 10.0 mi SE 3.5 mph - N/A   Scattered Clouds
3:55 AM 77.0 °F - 71.6 °F 83% 30.12 in 10.0 mi ESE 4.6 mph - N/A   Scattered Clouds
4:15 AM 77.0 °F - 71.6 °F 83% 30.11 in 10.0 mi SSW 3.5 mph - N/A   Scattered Clouds
4:35 AM 77.0 °F - 73.4 °F 89% 30.10 in 10.0 mi ESE 6.9 mph - N/A   Mostly Cloudy
4:55 AM 78.8 °F - 73.4 °F 83% 30.10 in 10.0 mi ESE 5.8 mph - N/A   Scattered Clouds
5:15 AM 78.8 °F - 75.2 °F 89% 30.11 in 10.0 mi ESE 9.2 mph - N/A   Clear
5:35 AM 80.6 °F 86.2 °F 75.2 °F 84% 30.11 in 10.0 mi ESE 11.5 mph 16.1 mph N/A   Scattered Clouds
5:55 AM 80.6 °F 86.2 °F 75.2 °F 84% 30.12 in 10.0 mi SE 8.1 mph - N/A   Clear
6:15 AM 80.6 °F 85.4 °F 73.4 °F 79% 30.12 in 10.0 mi ESE 11.5 mph 16.1 mph N/A   Scattered Clouds
6:47 AM 80.6 °F 86.2 °F 75.2 °F 84% 30.12 in 10.0 mi ESE 11.5 mph - N/A   Scattered Clouds
7:47 AM 82.4 °F 89.5 °F 75.2 °F 79% 30.14 in 10.0 mi ESE 9.2 mph - N/A   Scattered Clouds
8:47 AM 82.4 °F 89.5 °F 75.2 °F 79% 30.15 in 7.0 mi ESE 11.5 mph - N/A   Mostly Cloudy
9:47 AM 84.2 °F 94.1 °F 77.0 °F 79% 30.16 in 7.0 mi ESE 12.7 mph 19.6 mph N/A   Mostly Cloudy
10:47 AM 86.0 °F 96.9 °F 77.0 °F 74% 30.16 in 7.0 mi ESE 16.1 mph 24.2 mph N/A Thunderstorm Mostly Cloudy
12:47 PM 86.0 °F 95.1 °F 75.2 °F 70% 30.15 in 7.0 mi East 16.1 mph 23.0 mph N/A Thunderstorm Mostly Cloudy
1:47 PM 86.0 °F 95.1 °F 75.2 °F 70% 30.16 in 7.0 mi East 16.1 mph 25.3 mph N/A   Mostly Cloudy
2:47 PM 86.0 °F 93.4 °F 73.4 °F 66% 30.13 in 7.0 mi ESE 18.4 mph 24.2 mph N/A   Mostly Cloudy
3:47 PM 86.0 °F 95.1 °F 75.2 °F 70% 30.12 in 7.0 mi East 17.3 mph 25.3 mph N/A   Mostly Cloudy
4:47 PM 86.0 °F 93.4 °F 73.4 °F 66% 30.10 in 7.0 mi ESE 16.1 mph 23.0 mph N/A   Mostly Cloudy
5:47 PM 86.0 °F 93.4 °F 73.4 °F 66% 30.09 in 7.0 mi ESE 13.8 mph 21.9 mph N/A   Mostly Cloudy
6:47 PM 86.0 °F 95.1 °F 75.2 °F 70% 30.10 in 7.0 mi ESE 11.5 mph 16.1 mph N/A   Mostly Cloudy
8:15 PM 82.4 °F 88.2 °F 73.4 °F 74% 30.12 in 10.0 mi SE 9.2 mph - N/A   Clear
8:35 PM 82.4 °F 88.2 °F 73.4 °F 74% 30.12 in 10.0 mi SE 9.2 mph - N/A   Clear
8:55 PM 80.6 °F 84.6 °F 71.6 °F 74% 30.12 in 10.0 mi SE 11.5 mph - N/A   Scattered Clouds
9:15 PM 80.6 °F 84.6 °F 71.6 °F 74% 30.13 in 10.0 mi SE 8.1 mph - N/A   Scattered Clouds
9:35 PM 80.6 °F 85.4 °F 73.4 °F 79% 30.13 in 10.0 mi SE 6.9 mph - N/A   Clear
9:55 PM 80.6 °F 85.4 °F 73.4 °F 79% 30.14 in 10.0 mi SE 5.8 mph - N/A   Mostly Cloudy
10:15 PM 78.8 °F - 73.4 °F 83% 30.14 in 10.0 mi East 8.1 mph - N/A   Mostly Cloudy
10:35 PM 78.8 °F - 73.4 °F 83% 30.15 in 7.0 mi East 3.5 mph - N/A   Scattered Clouds
10:55 PM 78.8 °F - 73.4 °F 83% 30.15 in 7.0 mi SE 5.8 mph - N/A   Scattered Clouds
11:15 PM 80.6 °F 85.4 °F 73.4 °F 79% 30.15 in 10.0 mi SE 5.8 mph - N/A   Clear
11:35 PM 80.6 °F 85.4 °F 73.4 °F 79% 30.15 in 10.0 mi SE 5.8 mph - N/A   Scattered Clouds
11:55 PM 80.6 °F 85.4 °F 73.4 °F 79% 30.15 in 10.0 mi SE 5.8 mph - N/A   Scattered Clouds